When you browse on this site, cookies collect data to enhance your experience and personalize the content and advertising you see.
Visit our Privacy Policy to learn more. By continuing to use the site, you agree to this use of cookies and data.
  • Em Portugal
  • Lista de países
  • Para 7 dias
  • Temperatura da água
  • Mapa do tempo
  • Widgets de tempo
  • user-avatar
    Iniciar Sessão

    Previsão horária em Hutora Dubskie

    Hoje, 25 Janeiro, Sábado

    Tempo Temperatura Precipitação Vento Pressão Humidade
    00:00 0°C° 0.1 mm 5 m/s 728 mmHg 93%
    01:00 -1°C° 0.1 mm 4 m/s 728 mmHg 92%
    02:00 -1°C° 0.1 mm 4 m/s 728 mmHg 91%
    03:00 -1°C° 0 mm 4 m/s 727 mmHg 91%
    04:00 -1°C° 0 mm 4 m/s 727 mmHg 91%
    05:00 -1°C° 0 mm 4 m/s 727 mmHg 91%
    06:00 -1°C° 0.1 mm 4 m/s 726 mmHg 89%
    07:00 -1°C° 0.1 mm 5 m/s 726 mmHg 88%
    08:00 -1°C° 0.1 mm 5 m/s 726 mmHg 86%
    09:00 -2°C° 0.2 mm 6 m/s 726 mmHg 83%
    10:00 -2°C° 0.2 mm 7 m/s 726 mmHg 81%
    11:00 -2°C° 0.2 mm 8 m/s 726 mmHg 79%
    12:00 -2°C° 0.1 mm 7 m/s 726 mmHg 75%
    13:00 -3°C° 0.1 mm 7 m/s 727 mmHg 70%
    14:00 -3°C° 0.1 mm 6 m/s 727 mmHg 66%
    15:00 -3°C° 0 mm 6 m/s 727 mmHg 68%
    16:00 -4°C° 0 mm 6 m/s 728 mmHg 71%
    17:00 -4°C° 0 mm 6 m/s 728 mmHg 73%
    18:00 -5°C° 0.1 mm 6 m/s 729 mmHg 75%
    19:00 -6°C° 0.1 mm 7 m/s 730 mmHg 78%
    20:00 -6°C° 0.1 mm 7 m/s 730 mmHg 80%
    21:00 -6°C° 0 mm 7 m/s 731 mmHg 78%
    22:00 -5°C° 0 mm 6 m/s 732 mmHg 76%
    23:00 -5°C° 0 mm 6 m/s 733 mmHg 74%

    Amanhã, 26 Janeiro, Domingo

    Tempo Temperatura Precipitação Vento Pressão Humidade
    00:00 -5°C° 0 mm 5 m/s 733 mmHg 75%
    01:00 -5°C° 0 mm 5 m/s 734 mmHg 77%
    02:00 -5°C° 0 mm 4 m/s 735 mmHg 78%
    03:00 -5°C° 0 mm 4 m/s 735 mmHg 79%
    04:00 -5°C° 0 mm 4 m/s 736 mmHg 80%
    05:00 -5°C° 0 mm 4 m/s 736 mmHg 81%
    06:00 -5°C° 0 mm 3 m/s 736 mmHg 82%
    07:00 -5°C° 0 mm 3 m/s 737 mmHg 83%
    08:00 -5°C° 0 mm 3 m/s 737 mmHg 84%
    09:00 -4°C° 0.1 mm 3 m/s 737 mmHg 84%
    10:00 -4°C° 0.1 mm 4 m/s 737 mmHg 84%
    11:00 -4°C° 0.1 mm 4 m/s 736 mmHg 83%
    12:00 -3°C° 0.3 mm 4 m/s 736 mmHg 86%
    13:00 -4°C° 0.3 mm 5 m/s 735 mmHg 88%
    14:00 -4°C° 0.3 mm 6 m/s 735 mmHg 90%
    15:00 -3°C° 0.5 mm 6 m/s 734 mmHg 92%
    16:00 -2°C° 0.5 mm 6 m/s 734 mmHg 93%
    17:00 0°C° 0.5 mm 5 m/s 734 mmHg 95%
    18:00 -1°C° 0.1 mm 6 m/s 734 mmHg 94%
    19:00 +1°C° 0.1 mm 6 m/s 734 mmHg 93%
    20:00 +1°C° 0.1 mm 6 m/s 734 mmHg 92%
    21:00 +1°C° 0 mm 6 m/s 734 mmHg 91%
    22:00 +1°C° 0 mm 5 m/s 734 mmHg 91%
    23:00 +1°C° 0 mm 5 m/s 734 mmHg 90%

    Depois de amanhã, 27 Janeiro, Segunda-feira

    Tempo Temperatura Precipitação Vento Pressão Humidade
    00:00 +1°C° 0 mm 5 m/s 735 mmHg 91%
    01:00 +1°C° 0 mm 5 m/s 735 mmHg 92%
    02:00 +1°C° 0 mm 4 m/s 735 mmHg 93%
    03:00 0°C° 0 mm 4 m/s 735 mmHg 94%
    04:00 0°C° 0 mm 4 m/s 735 mmHg 95%
    05:00 +1°C° 0 mm 3 m/s 735 mmHg 97%
    06:00 +1°C° 0.1 mm 3 m/s 736 mmHg 97%
    07:00 +1°C° 0.1 mm 3 m/s 736 mmHg 97%
    08:00 +2°C° 0.1 mm 2 m/s 736 mmHg 97%
    09:00 +2°C° 0.2 mm 2 m/s 736 mmHg 98%
    10:00 +2°C° 0.2 mm 2 m/s 736 mmHg 98%
    11:00 +2°C° 0.2 mm 2 m/s 737 mmHg 98%
    12:00 +2°C° 0.2 mm 2 m/s 737 mmHg 98%
    13:00 +2°C° 0.2 mm 2 m/s 736 mmHg 98%
    14:00 +2°C° 0.2 mm 2 m/s 736 mmHg 98%
    15:00 +2°C° 0.4 mm 2 m/s 736 mmHg 98%
    16:00 +2°C° 0.4 mm 2 m/s 736 mmHg 98%
    17:00 +2°C° 0.4 mm 2 m/s 736 mmHg 98%
    18:00 +2°C° 0.4 mm 2 m/s 736 mmHg 98%
    19:00 +2°C° 0.4 mm 2 m/s 736 mmHg 98%
    20:00 +2°C° 0.4 mm 2 m/s 736 mmHg 98%
    21:00 +1°C° 0.3 mm 2 m/s 736 mmHg 98%
    22:00 +1°C° 0.3 mm 2 m/s 736 mmHg 98%
    23:00 +1°C° 0.3 mm 2 m/s 735 mmHg 97%

    28 Janeiro, Terça-feira

    Tempo Temperatura Precipitação Vento Pressão Humidade
    00:00 +1°C° 0.1 mm 2 m/s 735 mmHg 98%
    01:00 +1°C° 0.1 mm 2 m/s 735 mmHg 98%
    02:00 +1°C° 0.1 mm 2 m/s 735 mmHg 98%
    03:00 +1°C° 0.3 mm 2 m/s 734 mmHg 98%
    04:00 +1°C° 0.3 mm 1 m/s 734 mmHg 98%
    05:00 +1°C° 0.3 mm 1 m/s 734 mmHg 99%
    06:00 +1°C° 0.1 mm 1 m/s 734 mmHg 98%
    07:00 +1°C° 0.1 mm 1 m/s 734 mmHg 98%
    08:00 +1°C° 0.1 mm 1 m/s 734 mmHg 98%
    09:00 +1°C° 0.1 mm 1 m/s 734 mmHg 98%
    10:00 +1°C° 0.1 mm 1 m/s 734 mmHg 98%
    11:00 +1°C° 0.1 mm 1 m/s 734 mmHg 98%
    12:00 +1°C° 0 mm 1 m/s 733 mmHg 97%
    13:00 +2°C° 0 mm 1 m/s 733 mmHg 97%
    14:00 +2°C° 0 mm 1 m/s 733 mmHg 97%
    15:00 +1°C° 0 mm 1 m/s 733 mmHg 97%
    16:00 +1°C° 0 mm 1 m/s 733 mmHg 97%
    17:00 +1°C° 0 mm 1 m/s 733 mmHg 97%
    18:00 +1°C° 0 mm 1 m/s 733 mmHg 96%
    19:00 +1°C° 0 mm 1 m/s 733 mmHg 95%
    20:00 +1°C° 0 mm 1 m/s 733 mmHg 94%
    21:00 -1°C° 0 mm 2 m/s 733 mmHg 94%
    22:00 -1°C° 0 mm 2 m/s 733 mmHg 93%
    23:00 -1°C° 0 mm 2 m/s 733 mmHg 92%

    29 Janeiro, Quarta-feira

    Tempo Temperatura Precipitação Vento Pressão Humidade
    00:00 -1°C° 0.1 mm 2 m/s 732 mmHg 94%
    01:00 -1°C° 0.1 mm 2 m/s 732 mmHg 95%
    02:00 -1°C° 0.1 mm 2 m/s 732 mmHg 96%
    03:00 -1°C° 0 mm 2 m/s 731 mmHg 96%
    04:00 -1°C° 0 mm 3 m/s 731 mmHg 96%
    05:00 0°C° 0 mm 3 m/s 731 mmHg 96%
    06:00 0°C° 0 mm 3 m/s 731 mmHg 96%
    07:00 -1°C° 0 mm 4 m/s 730 mmHg 95%
    08:00 -2°C° 0 mm 4 m/s 730 mmHg 94%
    09:00 -1°C° 0 mm 4 m/s 730 mmHg 93%
    10:00 -1°C° 0 mm 4 m/s 730 mmHg 92%
    11:00 -1°C° 0 mm 4 m/s 730 mmHg 91%
    12:00 -1°C° 0.1 mm 4 m/s 729 mmHg 93%
    13:00 -1°C° 0.1 mm 4 m/s 729 mmHg 94%
    14:00 -1°C° 0.1 mm 5 m/s 728 mmHg 96%
    15:00 0°C° 0.1 mm 4 m/s 728 mmHg 96%
    16:00 0°C° 0.1 mm 4 m/s 728 mmHg 96%
    17:00 0°C° 0.1 mm 4 m/s 727 mmHg 96%
    18:00 0°C° 0.1 mm 4 m/s 727 mmHg 96%
    19:00 0°C° 0.1 mm 4 m/s 726 mmHg 96%
    20:00 0°C° 0.1 mm 4 m/s 726 mmHg 96%
    21:00 0°C° 0.2 mm 4 m/s 726 mmHg 96%
    22:00 0°C° 0.2 mm 4 m/s 725 mmHg 96%
    23:00 0°C° 0.2 mm 4 m/s 725 mmHg 96%

    30 Janeiro, Quinta-feira

    Tempo Temperatura Precipitação Vento Pressão Humidade
    00:00 0°C° 0.4 mm 4 m/s 725 mmHg 97%
    01:00 -1°C° 0.4 mm 4 m/s 725 mmHg 97%
    02:00 0°C° 0.4 mm 3 m/s 724 mmHg 97%
    03:00 0°C° 0.5 mm 3 m/s 724 mmHg 97%
    04:00 0°C° 0.5 mm 3 m/s 724 mmHg 97%
    05:00 -1°C° 0.5 mm 3 m/s 724 mmHg 97%
    06:00 -1°C° 0.2 mm 3 m/s 724 mmHg 95%
    07:00 -1°C° 0.2 mm 3 m/s 725 mmHg 92%
    08:00 -1°C° 0.2 mm 3 m/s 725 mmHg 90%
    09:00 -1°C° 0 mm 3 m/s 725 mmHg 89%
    10:00 -1°C° 0 mm 3 m/s 725 mmHg 87%
    11:00 -1°C° 0 mm 3 m/s 725 mmHg 86%
    12:00 -1°C° 0 mm 3 m/s 726 mmHg 85%
    13:00 -1°C° 0 mm 3 m/s 726 mmHg 84%
    14:00 -1°C° 0 mm 3 m/s 726 mmHg 83%
    15:00 -2°C° 0 mm 2 m/s 726 mmHg 84%
    16:00 -2°C° 0 mm 2 m/s 726 mmHg 84%
    17:00 -2°C° 0 mm 2 m/s 726 mmHg 85%
    18:00 0°C° 0 mm 1 m/s 726 mmHg 85%
    19:00 0°C° 0 mm 1 m/s 727 mmHg 85%
    20:00 0°C° 0 mm 1 m/s 727 mmHg 85%
    21:00 0°C° 0 mm 1 m/s 727 mmHg 87%
    22:00 0°C° 0 mm 1 m/s 727 mmHg 88%
    23:00 -1°C° 0 mm 0 m/s 727 mmHg 89%
    Mostrar mais